Temperature
7 7 7 7 7 7 7 6 6 6 6 7 7 7 7 7 6 6 6 6 6 6 6 6 6 5 5 5 5 5 5 5 5 5 5 4 4 4
7 7 7 7 7 7 6 6 6 6 6 6 6 6 6 6 6 6 6 6 6 5 5 5 5 5 5 5 5 5 5 5 4 4 4 4 4 4
7 7 7 6 6 6 6 6 6 6 5 6 6 6 6 6 6 5 5 5 5 5 5 5 5 4 4 4 4 4 4 4 4 4 4 4 3 3
6 6 6 6 6 6 6 6 6 6 5 5 5 5 5 5 5 5 5 5 5 5 4 4 4 4 4 4 4 4 4 4 4 4 3 3 3 3
6 6 6 6 6 6 6 5 5 5 5 5 5 5 5 4 4 4 4 4 4 4 4 4 4 4 4 3 3 3 3 3 3 3 3 3 3 3
6 6 6 5 5 5 5 5 5 5 4 4 4 4 4 4 4 4 4 4 4 4 4 3 3 3 3 3 3 3 3 3 3 3 3 2 2 2
5 5 5 5 5 5 5 5 4 4 4 4 4 4 4 3 3 3 3 3 3 3 3 3 3 3 3 3 2 2 2 2 2 2 2 2 2 2
5 5 5 5 4 4 4 4 4 4 4 3 3 3 3 3 3 3 3 2 2 3 3 3 3 2 2 2 2 2 2 2 2 2 2 1 1 1
4 4 4 4 4 4 4 4 3 3 3 3 3 3 3 2 2 2 2 2 2 2 2 2 2 2 2 2 2 1 2 1 1 1 1 1 1 1
4 4 4 4 3 3 3 3 3 3 3 3 2 2 2 2 2 2 1 1 1 1 1 1 2 1 2 1 1 1 1 1 1 1 1 0 0 -0
3 3 3 3 3 3 3 3 3 3 2 2 2 2 1 1 1 1 1 1 1 1 1 0 1 1 1 1 1 1 0 0 0 0 -0 -0 -0 -1
2 2 2 2 2 2 2 2 2 2 2 2 1 1 1 1 1 0 0 0 -0 -0 0 -0 -0 -0 -0 0 0 0 -0 -0 -0 -0 -1 -1 -1 -1
2 2 2 2 2 1 1 1 1 1 1 1 0 0 0 0 0 0 -0 -0 -0 -1 -1 -1 -1 -1 -1 -1 -1 -1 -1 -1 -1 -1 -1 -1 -1 -2
1 1 1 1 1 1 1 0 0 0 -0 -0 -0 -0 -0 -0 -0 -1 -1 -1 -1 -1 -1 -2 -2 -2 -2 -2 -2 -1 -1 -1 -1 -1 -1 -2 -2 -2
0 0 0 0 0 -0 -0 -0 -0 -1 -1 -1 -1 -1 -1 -1 -1 -1 -1 -1 -1 -2 -2 -2 -2 -2 -2 -3 -3 -2 -2 -2 -2 -2 -2 -2 -2 -2
-1 -1 -1 -1 -1 -1 -1 -1 -1 -1 -1 -1 -1 -1 -1 -2 -2 -2 -2 -2 -2 -2 -2 -2 -3 -3 -3 -3 -3 -3 -3 -3 -3 -3 -3 -3 -3 -3
-1 -1 -1 -1 -1 -2 -2 -2 -2 -2 -2 -2 -2 -2 -2 -2 -2 -2 -3 -3 -3 -3 -3 -3 -3 -3 -3 -3 -3 -3 -4 -4 -4 -4 -4 -3 -3 -3
-2 -2 -2 -2 -2 -2 -2 -2 -2 -2 -2 -2 -2 -3 -3 -3 -3 -3 -3 -3 -3 -3 -4 -4 -4 -4 -4 -4 -4 -4 -4 -4 -4 -4 -4 -4 -4 -3
-2 -2 -2 -2 -3 -3 -3 -3 -3 -3 -3 -3 -3 -3 -3 -3 -4 -4 -4 -4 -4 -4 -4 -4 -4 -5 -5 -5 -4 -4 -5 -5 -5 -5 -5 -5 -5 -4
-3 -3 -3 -3 -3 -3 -3 -3 -3 -3 -4 -4 -4 -4 -4 -4 -4 -4 -4 -4 -4 -4 -5 -5 -5 -5 -6 -6 -5 -5 -5 -5 -5 -5 -5 -5 -5 -5
-3 -3 -4 -4 -4 -4 -4 -4 -4 -4 -4 -4 -4 -4 -4 -5 -5 -5 -5 -5 -5 -5 -5 -5 -5 -6 -6 -6 -6 -6 -5 -6 -6 -6 -6 -6 -6 -5
-4 -4 -4 -4 -4 -4 -4 -4 -5 -5 -5 -5 -5 -5 -5 -5 -5 -5 -5 -5 -5 -6 -6 -6 -6 -6 -6 -6 -6 -6 -6 -6 -6 -6 -6 -6 -7 -7
-5 -5 -5 -5 -5 -5 -5 -5 -5 -5 -5 -5 -5 -5 -5 -5 -6 -6 -6 -6 -6 -6 -6 -6 -6 -6 -6 -7 -7 -7 -7 -6 -6 -6 -6 -6 -7 -7
Wind_Speed
6 6 4 4 4 4 4 4 4 3 4 4 3 2 4 5 5 5 6 7 8 8 9 9 8 8 8 8 8 8 8 8 8 9 8 9 10 11
5 6 5 3 4 3 4 4 4 4 4 3 3 2 2 3 5 5 7 7 8 8 8 8 9 9 9 9 9 9 9 10 9 10 10 10 11 11
4 6 6 5 4 4 4 4 4 3 4 3 2 1 2 2 3 4 5 5 6 8 8 9 9 9 10 10 10 10 10 10 10 11 11 11 12 13
6 5 5 5 5 4 4 4 4 4 4 4 2 2 2 2 2 2 4 5 6 8 9 9 10 10 11 11 11 11 11 11 11 11 11 12 12 13
6 6 6 5 5 4 5 4 4 3 3 3 3 2 1 1 1 2 3 3 6 7 8 9 10 11 11 11 11 12 11 11 11 11 12 12 13 14
5 6 6 6 6 6 5 5 4 3 3 3 2 2 2 1 1 2 3 2 3 5 7 8 9 10 10 11 11 12 12 12 12 11 12 12 13 14
4 4 5 6 7 6 5 5 5 4 3 3 3 2 2 2 3 2 3 3 3 3 2 4 5 6 7 9 11 12 12 12 12 12 12 13 13 14
4 4 4 5 6 7 7 7 7 6 5 5 4 4 5 4 3 3 2 2 3 2 1 4 3 4 6 8 11 12 11 11 11 11 12 13 13 14
5 4 3 3 4 3 4 6 7 8 8 6 6 6 5 5 4 4 4 4 5 2 1 4 2 4 6 9 11 11 11 11 11 11 12 12 13 13
4 4 4 4 3 4 3 3 4 5 6 6 6 6 5 5 5 5 4 3 2 2 2 3 3 3 5 7 9 9 10 10 11 11 11 12 13 13
2 3 4 4 5 5 4 3 3 3 4 6 7 6 6 6 4 2 2 2 3 3 2 2 2 3 3 4 6 7 8 9 10 10 11 11 12 12
1 2 4 4 5 6 5 4 5 4 2 2 2 3 3 3 5 4 4 3 2 3 2 2 1 1 3 2 3 5 6 8 9 10 10 11 11 9
2 2 2 4 5 6 5 4 5 4 2 2 2 1 1 1 1 2 3 3 4 3 2 2 1 1 2 3 3 3 4 5 6 8 10 11 11 9
3 2 3 4 4 4 3 3 4 3 2 2 1 1 2 1 1 1 2 3 3 3 4 3 2 2 2 3 4 3 3 5 5 5 7 10 11 11
2 3 3 3 2 2 2 3 2 2 2 2 2 3 2 2 1 1 1 1 1 1 2 3 3 2 3 4 4 3 3 3 4 4 5 6 7 7
1 2 2 2 1 1 1 1 1 2 2 2 2 2 1 1 1 1 1 1 1 2 2 2 4 3 3 4 5 5 4 3 4 5 5 6 8 8
2 2 1 1 1 1 1 1 1 1 1 2 2 1 1 1 1 1 1 1 1 2 2 2 2 3 4 4 4 5 5 5 5 5 5 7 7 7
2 2 2 2 2 2 2 1 1 2 2 2 2 2 2 2 1 1 1 1 2 2 2 2 2 2 2 2 5 5 4 4 4 5 4 6 8 6
1 1 2 2 2 2 2 2 2 2 2 2 2 2 2 2 2 2 2 2 2 2 2 2 1 1 2 4 3 4 4 4 5 5 5 5 8 8
1 1 2 2 2 2 2 2 2 2 2 2 2 2 2 2 2 2 3 3 3 2 2 2 2 3 4 4 4 4 6 5 4 6 6 6 7 11
1 1 1 2 2 2 2 2 2 2 2 2 3 3 3 3 3 3 3 4 3 2 3 4 4 4 2 1 3 4 4 7 7 6 5 6 6 5
1 1 1 2 2 2 2 2 2 2 3 3 3 3 3 3 4 4 3 3 3 3 4 3 2 1 1 2 5 5 5 6 9 11 10 9 4 4
1 1 2 2 2 2 2 2 3 3 3 3 3 3 3 3 3 3 3 3 3 3 3 3 2 1 2 3 4 4 6 6 5 5 6 10 12 14
Wind_Direction
197 195 197 199 193 189 180 179 181 226 253 244 239 233 233 238 248 249 252 261 262 263 264 267 268 272 277 278 276 276 279 281 281 279 279 283 286 290
196 194 200 201 195 192 192 194 195 205 234 231 230 244 234 244 255 250 253 262 263 261 259 260 263 265 270 273 275 273 273 273 272 274 279 281 282 286
197 198 204 196 195 195 189 190 197 196 231 258 247 251 230 253 273 266 263 258 263 262 260 261 262 265 266 269 270 269 271 270 270 271 273 277 281 284
201 198 207 196 195 196 193 198 201 200 210 241 246 234 243 241 250 268 274 263 263 267 267 265 264 266 268 268 267 267 269 270 270 269 271 274 279 283
200 199 205 197 203 202 198 201 201 200 203 215 237 229 247 245 263 279 275 270 270 269 269 267 265 268 270 269 269 269 268 267 268 269 270 272 276 279
203 202 202 202 205 201 202 201 194 194 195 206 225 231 233 241 222 256 282 277 279 276 268 267 269 271 272 271 272 272 269 267 267 269 271 273 274 275
205 206 206 205 204 203 200 197 191 197 199 211 224 229 228 219 231 230 256 284 280 253 274 275 270 269 270 273 272 269 270 269 268 269 271 274 275 276
203 206 204 206 207 208 209 203 197 199 205 212 223 229 232 226 224 228 244 274 275 254 270 282 260 265 268 267 273 272 270 270 270 272 275 276 275 276
199 197 201 206 205 202 210 215 219 219 215 211 221 228 227 220 212 225 228 238 249 243 239 272 268 269 271 272 276 272 273 276 275 276 277 278 279 278
202 198 197 201 203 197 199 213 229 234 229 225 223 228 226 217 210 219 229 243 266 243 194 255 271 274 290 281 276 273 274 280 280 278 280 282 282 282
204 196 194 201 208 199 194 211 234 253 245 230 230 230 231 227 209 194 205 232 264 254 201 223 270 297 294 284 280 281 279 285 288 285 287 288 286 287
197 204 204 205 205 196 195 202 223 237 225 232 232 239 228 216 209 204 207 221 240 248 207 200 251 316 301 283 289 292 293 296 300 296 295 294 294 291
194 207 216 205 202 203 204 209 221 219 203 204 213 220 210 200 203 206 205 208 221 237 201 177 222 236 255 291 300 287 285 293 298 299 301 299 296 292
199 209 209 200 202 203 207 205 201 193 178 186 206 225 231 234 230 212 217 218 226 235 221 203 215 225 253 277 283 292 292 286 285 291 299 305 300 294
199 202 193 188 197 204 196 189 185 179 180 203 217 230 233 230 216 207 219 224 300 289 234 222 220 227 233 249 265 282 302 299 289 293 298 301 296 293
152 155 161 168 177 173 178 207 206 194 194 208 219 230 219 200 211 204 232 269 295 306 309 259 237 220 242 253 256 272 274 279 298 301 302 296 291 280
142 129 129 149 164 176 170 168 177 187 208 212 212 222 220 215 237 212 202 211 238 272 298 320 308 270 244 240 256 262 269 277 280 295 303 299 291 282
150 167 183 199 211 214 208 212 214 211 211 209 210 211 212 213 225 235 217 220 242 257 267 286 324 340 326 279 234 252 269 276 287 292 286 289 293 292
152 189 208 220 226 224 220 217 223 219 210 206 208 208 213 217 217 223 223 230 248 256 262 256 246 239 290 295 289 234 249 282 291 292 282 276 283 292
170 204 226 235 238 235 231 226 218 207 209 211 210 212 213 213 220 224 224 227 243 256 264 257 232 225 240 261 273 280 271 267 278 286 291 287 282 288
238 240 244 247 246 242 237 230 221 215 214 215 217 217 216 216 223 227 230 239 246 247 253 258 256 274 265 272 285 284 278 280 276 274 285 296 299 300
257 255 257 255 254 246 240 232 228 223 218 219 220 219 220 217 223 226 227 229 236 243 255 266 276 276 228 244 271 280 291 301 301 294 279 264 263 275
267 266 266 264 258 253 243 234 230 228 223 221 221 220 218 224 228 227 230 229 233 243 258 274 282 270 258 251 267 280 288 297 305 310 298 293 284 281
Height
1523 1525 1527 1529 1530 1532 1533 1534 1536 1534 1534 1535 1537 1537 1538 1538 1539 1539 1539 1539 1538 1538 1538 1538 1538 1537 1537 1537 1536 1536 1535 1535 1535 1534 1534 1533 1533 1533
1519 1521 1523 1524 1526 1527 1529 1530 1531 1532 1531 1531 1532 1533 1534 1534 1534 1534 1534 1534 1534 1534 1534 1534 1534 1533 1533 1532 1532 1531 1531 1531 1530 1529 1529 1528 1528 1527
1514 1516 1518 1520 1521 1523 1524 1525 1526 1527 1527 1527 1528 1529 1529 1529 1530 1530 1530 1530 1530 1530 1529 1529 1529 1529 1528 1528 1527 1526 1526 1525 1525 1524 1524 1523 1522 1522
1510 1512 1513 1515 1517 1518 1519 1520 1521 1522 1523 1522 1523 1524 1524 1525 1525 1525 1525 1525 1525 1525 1524 1524 1524 1523 1523 1522 1522 1521 1520 1519 1519 1518 1518 1517 1517 1516
1505 1507 1509 1510 1512 1513 1515 1516 1516 1517 1518 1518 1518 1519 1520 1520 1520 1520 1520 1520 1520 1520 1519 1519 1519 1518 1517 1517 1516 1515 1515 1514 1513 1512 1512 1511 1511 1510
1500 1502 1503 1505 1507 1508 1510 1511 1512 1513 1513 1514 1514 1514 1515 1515 1515 1515 1515 1515 1515 1515 1514 1514 1513 1512 1512 1511 1510 1510 1509 1508 1507 1506 1505 1504 1504 1503
1495 1497 1498 1500 1502 1503 1504 1505 1507 1507 1508 1508 1509 1509 1510 1510 1511 1510 1510 1509 1509 1509 1509 1508 1508 1507 1506 1505 1505 1504 1503 1502 1501 1500 1499 1498 1497 1497
1490 1491 1493 1495 1496 1498 1499 1500 1501 1502 1502 1503 1504 1504 1504 1506 1506 1506 1505 1504 1503 1504 1503 1502 1502 1501 1500 1500 1499 1498 1497 1496 1495 1493 1492 1491 1490 1490
1485 1486 1488 1490 1491 1492 1494 1495 1496 1497 1498 1499 1499 1499 1500 1501 1501 1501 1500 1500 1499 1499 1498 1496 1496 1495 1495 1494 1493 1492 1491 1490 1488 1487 1486 1485 1483 1483
1480 1482 1483 1484 1486 1487 1488 1489 1490 1491 1492 1493 1494 1494 1495 1496 1496 1496 1495 1495 1494 1494 1493 1491 1490 1490 1490 1489 1488 1487 1485 1484 1482 1481 1479 1478 1477 1476
1476 1477 1478 1480 1481 1483 1483 1484 1485 1486 1487 1488 1488 1489 1490 1490 1491 1490 1490 1489 1488 1488 1488 1487 1485 1484 1483 1483 1482 1481 1480 1478 1477 1475 1473 1472 1471 1469
1471 1473 1474 1475 1477 1477 1478 1479 1479 1480 1482 1482 1483 1484 1484 1485 1485 1485 1485 1484 1483 1482 1482 1481 1480 1479 1477 1476 1477 1476 1474 1473 1471 1469 1468 1466 1465 1463
1467 1468 1469 1471 1472 1473 1474 1474 1475 1476 1476 1477 1478 1478 1479 1479 1479 1479 1479 1479 1478 1477 1477 1477 1475 1475 1474 1471 1470 1470 1469 1467 1466 1464 1462 1461 1459 1457
1462 1464 1465 1466 1467 1469 1469 1470 1471 1471 1471 1472 1472 1472 1473 1473 1474 1474 1474 1474 1474 1473 1473 1472 1471 1470 1469 1466 1465 1464 1463 1462 1460 1458 1457 1455 1453 1452
1458 1459 1461 1462 1463 1464 1465 1466 1466 1467 1467 1467 1467 1467 1468 1469 1469 1469 1469 1469 1469 1469 1468 1467 1467 1466 1465 1463 1460 1459 1458 1456 1455 1453 1451 1449 1447 1446
1454 1455 1457 1458 1459 1459 1460 1461 1462 1462 1462 1462 1462 1463 1464 1464 1464 1464 1464 1464 1464 1463 1464 1463 1462 1461 1460 1458 1457 1455 1454 1452 1450 1448 1445 1443 1442 1440
1450 1451 1452 1453 1454 1455 1456 1457 1457 1458 1458 1458 1458 1459 1459 1459 1460 1460 1460 1459 1459 1458 1458 1458 1457 1456 1455 1454 1452 1450 1449 1447 1445 1443 1440 1437 1436 1434
1448 1448 1448 1449 1450 1450 1451 1452 1452 1453 1453 1454 1454 1454 1454 1455 1455 1455 1455 1455 1454 1454 1453 1453 1452 1451 1450 1449 1448 1446 1444 1443 1441 1438 1436 1432 1429 1428
1444 1444 1445 1445 1446 1446 1447 1447 1448 1448 1449 1449 1449 1450 1450 1450 1450 1450 1450 1450 1450 1449 1449 1449 1448 1447 1445 1443 1442 1443 1440 1438 1436 1433 1431 1428 1424 1422
1440 1441 1441 1441 1442 1442 1442 1443 1443 1443 1444 1444 1445 1445 1445 1445 1445 1445 1445 1445 1445 1445 1444 1444 1444 1443 1442 1440 1438 1437 1437 1434 1431 1428 1426 1423 1420 1417
1437 1437 1437 1438 1438 1438 1438 1438 1439 1439 1439 1440 1440 1440 1441 1441 1441 1441 1441 1441 1441 1440 1440 1439 1439 1439 1438 1437 1434 1432 1431 1431 1428 1424 1421 1417 1414 1410
1433 1433 1434 1434 1434 1434 1434 1434 1434 1434 1435 1435 1435 1436 1436 1436 1436 1436 1436 1436 1436 1436 1435 1435 1435 1434 1433 1432 1430 1428 1426 1425 1423 1421 1418 1415 1411 1407
1430 1430 1430 1430 1430 1430 1430 1430 1430 1430 1430 1430 1431 1431 1431 1432 1432 1432 1432 1432 1432 1431 1431 1430 1430 1430 1429 1428 1426 1424 1422 1420 1417 1415 1413 1411 1409 1405